Regional Weather Roundup
Issued by NWS Sioux Falls, SD

Home | Current Version | Previous Version | Text Only | Print | Product List | Glossary Off
Versions: 1 2 3 4 5 6 7 8 9 10 11 12 13 14 15 16 17 18 19 20 21 22 23 24 25 26 27 28 29 30 31 32 33 34 35 36 37 38 39 40 41 42 43 44 45 46 47 48 49 50

000
ASUS43 KFSD 021802
RWRFSD

WEATHER ROUNDUP FOR SE SOUTH DAKOTA/SW MINNESOTA/NW IOWA
NATIONAL WEATHER SERVICE SIOUX FALLS SD
1200 PM CST MON MAR 02 2015

NOTE: "FAIR" INDICATES FEW OR NO CLOUDS BELOW 12,000 FEET WITH NO
SIGNIFICANT WEATHER AND OR OBSTRUCTIONS TO VISIBILITY.


SDZ038>040-050-052>070-021900-
SOUTHEAST SOUTH DAKOTA

CITY           SKY/WX    TMP DP  RH WIND       PRES   REMARKS
CHAMBERLAIN    NOT AVBL
HURON          CLOUDY    30  17  58 S21G31    30.20F WCI  17
6HR MIN TEMP:   5; 6HR MAX TEMP:  30;

MADISON        FAIR      23  19  86 S18G25    30.26F WCI   9
MITCHELL       CLOUDY    33  14  45 S24       30.24F WCI  20
6HR MIN TEMP:   9; 6HR MAX TEMP:  33;

SIOUX FALLS    CLOUDY    27  16  63 SE17G25   30.31F WCI  14
6HR MIN TEMP:   2; 6HR MAX TEMP:  27;

WINNER         CLOUDY    37  13  37 S31G40    30.07F
YANKTON        PTSUNNY   30  12  47 SE18G26   30.31F WCI  18
$$

MNZ071-072-080-081-089-090-097-098-021900-
SOUTHWEST MINNESOTA

CITY           SKY/WX    TMP DP  RH WIND       PRES   REMARKS
FAIRMONT       MOSUNNY   21  10  63 S12       30.42F WCI   9
JACKSON        PTSUNNY   23  14  68 S10       30.40F WCI  12
LUVERNE        PTSUNNY   27  14  59 S14       30.35F WCI  15
MARSHALL       MOSUNNY   27  12  54 S18       30.37F WCI  13
6HR MIN TEMP:   0; 6HR MAX TEMP:  27;

MONTEVIDEO     SUNNY     27  12  54 SW14      30.37F WCI  15
PIPESTONE      PTSUNNY   21  14  73 S16       30.30F WCI   7
REDWOOD FALLS  SUNNY     24  11  57 S15       30.40F WCI  11
TRACY          MOSUNNY   25  13  61 S14       30.36F WCI  13
WINDOM         MOSUNNY   21  10  63 S13       30.38F WCI   9
WORTHINGTON    PTSUNNY   21  12  68 S12       30.37F WCI   9
$$

IAZ001>003-012>014-020>022-031-032-NEZ013-014-SDZ071-021900-
NORTHWEST IOWA

CITY           SKY/WX    TMP DP  RH WIND       PRES   REMARKS
DENISON        CLOUDY    30  19  64 SE10      30.37F WCI  21
ESTHERVILLE    MOSUNNY   21  12  68 S13       30.41F WCI   9
SIOUX CITY     CLOUDY    30  16  56 SE16      30.37F WCI  19
6HR MIN TEMP:  10; 6HR MAX TEMP:  31;

SPENCER        PTSUNNY   25  15  66 S12       30.40F WCI  14
6HR MIN TEMP:  -2; 6HR MAX TEMP:  25;

$$

ABBREVIATIONS USED IN REMARKS
   TC - TEMPERATURE IN CELSIUS
  WCI - WIND CHILL INDEX
   HX - HEAT INDEX
  VSB - VISIBILITY




USA.gov is the U.S. government's official web portal to all federal, state and local government web resources and services.